AirNav   ATP
 
 389 users online  

I86 Perry County Airport
New Lexington, Ohio, USA

GOING TO NEW LEXINGTON?


FAA INFORMATION EFFECTIVE 08 NOVEMBER 2018

Location

FAA Identifier: I86
Lat/Long: 39-41-29.7480N / 082-11-52.0290W
39-41.495800N / 082-11.867150W
39.6915967 / -82.1977858
(estimated)
Elevation: 1051.4 ft. / 320.5 m (surveyed)
Variation: 07W (2010)
From city: 2 miles S of NEW LEXINGTON, OH
Time zone: UTC -5 (UTC -4 during Daylight Saving Time)
Zip code: 43764

Airport Operations

Airport use: Open to the public
Control tower: no
ARTCC: INDIANAPOLIS CENTER
FSS: CLEVELAND FLIGHT SERVICE STATION
NOTAMs facility: CLE (NOTAM-D service available)
Attendance: MON-SAT 0800-1600
Wind indicator: lighted
Segmented circle: no
Lights: ACTVT MIRL RY 08/26 & REIL RY 26 - 122.8.
Beacon: white-green (lighted land airport)
Operates sunset to sunrise.

Airport Communications

CTAF/UNICOM: 122.8
  • APCH/DEP SERVICE PROVIDED BY INDIANAPOLIS ARTCC ON FREQS 124.45/370.9 (ZANESVILLE RCAG).

Nearby radio navigation aids

VOR radial/distance  VOR name  Freq  Var
ZZVr229/20.5ZANESVILLE VOR/DME114.9506W
APEr153/32.9APPLETON VORTAC116.7006W
XUBr080/(37.4)YELLOW BUD VOR112.5005W

 
NDB name  Hdg/Dist  Freq  Var  ID
UNIVERSITY359/26.325006WUGS ..- --. ...

Airport Services

Fuel available: 100LL
AFTER HOURS CALL 740-605-1966
Parking: hangars and tiedowns
Airframe service: MINOR
Powerplant service: MINOR
Bottled oxygen: NONE
Bulk oxygen: NONE

Runway Information

Runway 8/26

Dimensions: 3498 x 75 ft. / 1066 x 23 m
Surface: asphalt, in excellent condition
RY 08/26 HAS 3" TO 4" WIDE CRACKS AT VARIOUS LOCATIONS.
Runway edge lights: medium intensity
RUNWAY 8  RUNWAY 26
Latitude: 39-41.407183N39-41.583783N
Longitude: 082-12.222183W082-11.512383W
Elevation: 1051.4 ft.1041.6 ft.
Gradient: 0.7%0.7%
Traffic pattern: leftleft
Runway heading: 079 magnetic, 072 true259 magnetic, 252 true
Markings: nonprecision, in good conditionnonprecision, in good condition
Visual slope indicator: 2-light PAPI on right (3.50 degrees glide path)2-light PAPI on left (4.00 degrees glide path)
Runway end identifier lights: noyes
OTS INDEFLY.
Touchdown point: yes, no lightsyes, no lights
Obstructions: 6 ft. brush, 235 ft. from runway, 126 ft. right of centerline, 13:1 slope to clear
RWY 08 ROAD 0 FT FROM 250 FT RIGHT.
84 ft. trees, 943 ft. from runway, 287 ft. right of centerline, 8:1 slope to clear

Airport Ownership and Management from official FAA records

Ownership: Publicly-owned
Owner: PERRY COUNTY AIRPORT AUTHORITY
COURTHOUSE
NEW LEXINGTON, OH 43764
Phone 740-342-1160
Manager: LAWRENCE NASH
1870 ARPT ROAD SE
NEW LEXINGTON, OH 43764
Phone (740) 605-1932

Airport Operational Statistics

Aircraft based on the field: 12
Single engine airplanes: 10
Multi engine airplanes: 1
Ultralights: 1
    
Aircraft operations: avg 87/week *
88% local general aviation
11% transient general aviation
1% military
* for 12-month period ending 21 October 2015

Additional Remarks

DEER & TURKEY ON & INVOF ARPT.
FOR AFTER HRS CALL AHEAD FOR SVC 740- 343-0933

Instrument Procedures

NOTE: All procedures below are presented as PDF files. If you need a reader for these files, you should download the free Adobe Reader.

NOT FOR NAVIGATION. Please procure official charts for flight.
FAA instrument procedures published for use from 8 November 2018 at 0901Z to 6 December 2018 at 0900Z.

 
IAPs - Instrument Approach Procedures
RNAV (GPS) RWY 26   download (177KB)
VOR/DME RWY 26   download (178KB)
NOTE: Special Take-Off Minimums/Departure Procedures apply   download (164KB)

Other nearby airports with instrument procedures:

KZZV - Zanesville Municipal Airport (21 nm NE)
KLHQ - Fairfield County Airport (22 nm W)
KVTA - Newark-Heath Airport (23 nm NW)
KUNI - Ohio University Airport (29 nm S)
I10 - Noble County Airport (31 nm E)
 
Loc | Ops | Rwys | IFR | FBO | Links
Com | Nav | Svcs | Stats | Notes


 
Area around I86 (Perry County Airport)
 
Road maps at: MapQuest Bing Google
 
Aerial photo
WARNING: Photo may not be current or correct
Aerial photo of I86 (Perry County Airport)
Do you have a better or more recent aerial photo of Perry County Airport that you would like to share? If so, please send us your photo.

 
Sectional chart

 
Airport distance calculator
Flying to Perry County Airport? Find the distance to fly.

From to I86

Sunrise and sunset
Times for 21-Nov-2018
 Local
(UTC-5)
 Zulu
(UTC)
Morning civil twilight06:5211:52
Sunrise07:2112:21
Sunset17:0822:08
Evening civil twilight17:3822:38

Current date and time
Zulu (UTC)  21-Nov-2018 08:15:17
Local (UTC-5)  21-Nov-2018 03:15:17
 
METAR
KZZV 
21nm NE 
210753Z AUTO 24008KT 10SM OVC030 01/M04 A3018 RMK AO2 SLP226 T00111044
KLHQ 
22nm W 
210753Z AUTO 24007KT 9SM BKN030 00/M03 A3020 RMK AO2 SLP234 T00001033
KVTA 
23nm NW 
210754Z AUTO 23008KT 10SM CLR 00/M04 A3017 RMK AO2 SLP225 T00001039
KUNI 
29nm S 
210755Z AUTO 24006KT 10SM OVC029 01/M03 A3022 RMK AO2 T00121029
KCDI 
33nm NE 
210755Z AUTO 24006G16KT 10SM SCT021 OVC028 01/M03 A3019 RMK AO2 T00111034
KLCK 
34nm W 
210755Z AUTO 23005KT 10SM CLR M02/M04 A3021 RMK AO2 T10201040
KCMH 
37nm NW 
210751Z 21006KT 8SM FEW023 M01/M04 A3019 RMK AO2 SLP230 T10061039
KRZT 
41nm W 
210755Z AUTO 25005KT 10SM OVC026 00/M03 A3022 RMK AO2
K4I3 
41nm N 
210757Z AUTO 24009G15KT 10SM SCT120 M01/M03 A3015 RMK AO2
TAF
KZZV 
21nm NE 
210535Z 2106/2206 27008KT P6SM BKN035 FM211700 26010KT P6SM BKN025 FM212200 31010KT P6SM OVC025
NOTAMs
Click for the latest NOTAMs
NOTAMs are issued by the DoD/FAA and will open in a separate window not controlled by AirNav.

 

 
 

FBO, Fuel Providers, and Aircraft Ground Support

  
 Business Name 
 
 Contact 
 
 Services / Description 
 
Fuel Prices
 
Comments
  
Perry County Flight Services
740-475-9400
[web site]
[email]
Airport management, Aviation fuel, Aircraft parking (ramp or tiedown), Hangars, Flight training, Aircraft rental, Aerial tours / aerial sightseeing, Aerial photography, ...

More info about Perry County Flight Services
independent
100LL
FS $5.00 
 Updated 18-Jul-2018
 
   write
FS=Full service
Update Fuel Prices
 

Would you like to see your business listed on this page?

 If your business provides an interesting product or service to pilots, flight crews, aircraft, or users of the Perry County Airport, you should consider listing it here.  To start the listing process, click on the button below
 
Add a business
 

Other Pages about Perry County Airport

www.flyperry.com
 
Update a link
 
Copyright © AirNav, LLC. All rights reserved. Privacy Policy  Contact